Location: Spring Creek
(38.2870°N, 100.2160°W)
Time: 12:17:11
(UTC+00:00)

DELTA 2 R/B (1) - Pass Details

Date: 08 May 2021
Orbit: 790 x 802 km, 39.6° (Epoch: 22 June)

Event Time Altitude Azimuth Distance (km) Brightness Sun altitude
Rises 01:58:23 0° 266° (W) 3,288 8.0 -4.4°
Reaches altitude 10° 02:00:52 10° 268° (W) 2,357 7.2 -4.9°
Maximum altitude 02:06:26 79° 355° (N) 808 3.7 -5.8°
Drops below altitude 10° 02:12:00 10° 83° (E) 2,351 5.5 -6.8°
Enters shadow 02:13:45 - 84° (E) 3,002 6.1 -7.1°
